Location: De Har
(53.3413°N, 6.6858°E)
Time: 20:31:27
(UTC+00:00)

Alouette 2 Rocket - Pass Details

Date: 22 April 2026
Orbit: 501 x 2614 km, 79.8° (Epoch: 21 May)

Event Time Altitude Azimuth Distance (km) Brightness Sun altitude
Rises 02:29:50 0° 343° (NNW) 3,229 7.6 -14.3°
Reaches altitude 10° 02:32:27 10° 343° (NNW) 2,087 6.6 -14.0°
Maximum altitude 02:36:48 83° 257° (WSW) 557 3.2 -13.6°
Drops below altitude 10° 02:40:22 10° 168° (SSE) 1,714 5.5 -13.2°
Enters shadow 02:41:29 - 168° (SSE) 2,208 6.1 -13.1°
